Time,TemperatureF,DewpointF,PressureIn,WindDirection,WindDirectionDegrees,WindSpeedMPH,WindSpeedGustMPH,Humidity,HourlyPrecipIn,Conditions,Clouds,dailyrainin,SoftwareType,DateUTC
2013-09-17 00:04:00,57.3,52.2,26.76,ESE,113,0.0,0.0,83,0.00,,,0.00,WUHU216HW,2013-09-17 04:04:00,
2013-09-17 00:09:00,57.2,52.0,26.76,ESE,113,0.0,0.0,83,0.00,,,0.00,WUHU216HW,2013-09-17 04:09:00,
2013-09-17 00:14:00,57.0,51.8,26.76,ESE,113,0.0,0.0,83,0.00,,,0.00,WUHU216HW,2013-09-17 04:14:00,
2013-09-17 00:19:00,57.0,51.8,26.76,ESE,113,0.0,0.0,83,0.00,,,0.00,WUHU216HW,2013-09-17 04:19:00,
2013-09-17 00:24:00,57.0,51.8,26.76,ESE,113,0.0,0.0,83,0.00,,,0.00,WUHU216HW,2013-09-17 04:24:00,
2013-09-17 00:29:00,57.0,51.8,26.76,ESE,113,0.0,0.0,83,0.00,,,0.00,WUHU216HW,2013-09-17 04:29:00,
2013-09-17 00:34:00,56.8,51.6,26.76,ESE,113,0.0,0.0,83,0.00,,,0.00,WUHU216HW,2013-09-17 04:34:00,
2013-09-17 00:39:00,56.4,51.3,26.76,ESE,113,0.0,0.0,83,0.00,,,0.00,WUHU216HW,2013-09-17 04:39:00,
2013-09-17 00:44:00,56.4,51.3,26.76,ESE,113,0.0,0.0,83,0.00,,,0.00,WUHU216HW,2013-09-17 04:44:00,
2013-09-17 00:49:00,56.3,51.4,26.76,ESE,113,0.0,0.0,84,0.00,,,0.00,WUHU216HW,2013-09-17 04:49:00,
2013-09-17 00:54:00,56.3,51.4,26.76,ESE,113,0.0,0.0,84,0.00,,,0.00,WUHU216HW,2013-09-17 04:54:00,
2013-09-17 00:59:00,56.1,51.2,26.76,ESE,113,0.0,0.0,84,0.00,,,0.00,WUHU216HW,2013-09-17 04:59:00,
2013-09-17 01:04:00,55.9,51.1,26.76,ESE,113,0.0,0.0,84,0.00,,,0.00,WUHU216HW,2013-09-17 05:04:00,
2013-09-17 01:09:00,55.7,50.9,26.76,ESE,113,0.0,0.0,84,0.00,,,0.00,WUHU216HW,2013-09-17 05:09:00,
2013-09-17 01:14:00,55.5,50.7,26.76,ESE,113,0.0,0.0,84,0.00,,,0.00,WUHU216HW,2013-09-17 05:14:00,
2013-09-17 01:19:00,55.4,50.7,26.76,ENE,68,0.0,0.0,84,0.00,,,0.00,WUHU216HW,2013-09-17 05:19:00,
2013-09-17 01:24:00,55.4,50.5,26.76,ENE,68,0.0,0.0,84,0.00,,,0.00,WUHU216HW,2013-09-17 05:24:00,
2013-09-17 01:29:00,55.4,50.9,26.76,ENE,68,0.0,0.0,85,0.00,,,0.00,WUHU216HW,2013-09-17 05:29:00,
2013-09-17 01:34:00,55.4,50.9,26.76,ENE,68,0.0,0.0,85,0.00,,,0.00,WUHU216HW,2013-09-17 05:34:00,
2013-09-17 01:39:00,55.2,50.7,26.76,ENE,68,0.0,0.0,85,0.00,,,0.00,WUHU216HW,2013-09-17 05:39:00,
2013-09-17 01:44:00,55.2,50.7,26.76,ENE,68,0.0,0.0,85,0.00,,,0.00,WUHU216HW,2013-09-17 05:44:00,
2013-09-17 01:49:00,55.4,50.9,26.76,ENE,68,0.0,0.0,85,0.00,,,0.00,WUHU216HW,2013-09-17 05:49:00,
2013-09-17 01:54:00,55.4,50.9,26.76,ENE,68,0.0,0.0,85,0.00,,,0.00,WUHU216HW,2013-09-17 05:54:00,
2013-09-17 01:59:00,55.2,50.7,26.76,ENE,68,0.0,0.0,85,0.00,,,0.00,WUHU216HW,2013-09-17 05:59:00,
2013-09-17 02:04:00,55.2,50.7,26.76,ENE,68,0.0,0.0,85,0.00,,,0.00,WUHU216HW,2013-09-17 06:04:00,
2013-09-17 02:09:00,55.2,50.7,26.76,ENE,68,0.0,0.0,85,0.00,,,0.00,WUHU216HW,2013-09-17 06:09:00,
2013-09-17 02:14:00,55.2,50.7,26.76,ENE,68,0.0,0.0,85,0.00,,,0.00,WUHU216HW,2013-09-17 06:14:00,
2013-09-17 02:19:00,55.0,50.2,26.76,ENE,68,0.0,0.0,84,0.00,,,0.00,WUHU216HW,2013-09-17 06:19:00,
2013-09-17 02:24:00,55.0,50.2,26.76,ENE,68,0.0,0.0,84,0.00,,,0.00,WUHU216HW,2013-09-17 06:24:00,
2013-09-17 02:29:00,55.0,50.2,26.76,ENE,68,0.0,0.0,84,0.00,,,0.00,WUHU216HW,2013-09-17 06:29:00,
2013-09-17 02:34:00,55.0,50.2,26.76,ENE,68,0.0,0.0,84,0.00,,,0.00,WUHU216HW,2013-09-17 06:34:00,
2013-09-17 02:39:00,54.8,50.0,26.76,ENE,68,0.0,0.0,84,0.00,,,0.00,WUHU216HW,2013-09-17 06:39:00,
2013-09-17 02:44:00,54.6,49.8,26.76,East,90,0.0,0.0,84,0.00,,,0.00,WUHU216HW,2013-09-17 06:44:00,
2013-09-17 02:49:00,54.6,49.8,26.76,East,90,0.0,0.0,84,0.00,,,0.00,WUHU216HW,2013-09-17 06:49:00,
2013-09-17 02:54:00,54.5,49.7,26.76,East,90,0.0,0.0,84,0.00,,,0.00,WUHU216HW,2013-09-17 06:54:00,
2013-09-17 02:59:00,54.3,49.5,26.76,ESE,113,0.0,0.0,84,0.00,,,0.00,WUHU216HW,2013-09-17 06:59:00,
2013-09-17 03:04:00,54.1,49.3,26.76,ESE,113,0.0,0.0,84,0.00,,,0.00,WUHU216HW,2013-09-17 07:04:00,
2013-09-17 03:09:00,54.1,49.3,26.76,ESE,113,0.0,0.0,84,0.00,,,0.00,WUHU216HW,2013-09-17 07:09:00,
2013-09-17 03:14:00,53.9,49.2,26.76,ESE,113,0.0,0.0,84,0.00,,,0.00,WUHU216HW,2013-09-17 07:14:00,
2013-09-17 03:20:00,53.7,49.0,26.77,SE,135,0.0,0.0,84,0.00,,,0.00,WUHU216HW,2013-09-17 07:20:00,
2013-09-17 03:25:00,53.7,49.0,26.77,SE,135,0.0,0.0,84,0.00,,,0.00,WUHU216HW,2013-09-17 07:25:00,
2013-09-17 03:30:00,53.7,49.0,26.76,SE,135,0.0,0.0,84,0.00,,,0.00,WUHU216HW,2013-09-17 07:30:00,
2013-09-17 03:35:00,53.6,48.8,26.76,SE,135,0.0,0.0,84,0.00,,,0.00,WUHU216HW,2013-09-17 07:35:00,
2013-09-17 03:40:00,53.6,48.8,26.76,SE,135,0.0,0.0,84,0.00,,,0.00,WUHU216HW,2013-09-17 07:40:00,
2013-09-17 03:45:00,53.4,48.7,26.76,SE,135,0.0,0.0,84,0.00,,,0.00,WUHU216HW,2013-09-17 07:45:00,
2013-09-17 03:50:00,53.4,48.7,26.76,SE,135,0.0,0.0,84,0.00,,,0.00,WUHU216HW,2013-09-17 07:50:00,
2013-09-17 03:55:00,53.4,48.7,26.76,SE,135,0.0,0.0,84,0.00,,,0.00,WUHU216HW,2013-09-17 07:55:00,
2013-09-17 04:00:00,53.4,48.7,26.76,SE,135,0.0,0.0,84,0.00,,,0.00,WUHU216HW,2013-09-17 08:00:00,
2013-09-17 04:05:00,53.2,48.5,26.76,SE,135,0.0,0.0,84,0.00,,,0.00,WUHU216HW,2013-09-17 08:05:00,
2013-09-17 04:10:00,53.2,48.2,26.76,SE,135,0.0,0.0,83,0.00,,,0.00,WUHU216HW,2013-09-17 08:10:00,
2013-09-17 04:15:00,53.2,48.2,26.76,SE,135,0.0,0.0,83,0.00,,,0.00,WUHU216HW,2013-09-17 08:15:00,
2013-09-17 04:20:00,53.2,48.2,26.76,SE,135,0.0,0.0,83,0.00,,,0.00,WUHU216HW,2013-09-17 08:20:00,
2013-09-17 04:25:00,53.2,48.2,26.76,SE,135,0.0,0.0,83,0.00,,,0.00,WUHU216HW,2013-09-17 08:25:00,
2013-09-17 04:30:00,53.2,48.2,26.77,SE,135,0.0,0.0,83,0.00,,,0.00,WUHU216HW,2013-09-17 08:30:00,
2013-09-17 04:35:00,53.2,48.2,26.77,SE,135,0.0,0.0,83,0.00,,,0.00,WUHU216HW,2013-09-17 08:35:00,
2013-09-17 04:40:00,53.2,48.2,26.77,SE,135,0.0,0.0,83,0.00,,,0.00,WUHU216HW,2013-09-17 08:40:00,
2013-09-17 04:45:00,53.2,48.2,26.77,SE,135,0.0,0.0,83,0.00,,,0.00,WUHU216HW,2013-09-17 08:45:00,
2013-09-17 04:50:00,53.0,48.0,26.77,SE,135,0.0,0.0,83,0.00,,,0.00,WUHU216HW,2013-09-17 08:50:00,
2013-09-17 04:55:00,53.2,48.2,26.77,SE,135,0.0,0.0,83,0.00,,,0.00,WUHU216HW,2013-09-17 08:55:00,
2013-09-17 05:00:00,53.2,48.2,26.77,SE,135,0.0,0.0,83,0.00,,,0.00,WUHU216HW,2013-09-17 09:00:00,
2013-09-17 05:05:00,53.2,48.2,26.77,SE,135,0.0,0.0,83,0.00,,,0.00,WUHU216HW,2013-09-17 09:05:00,
2013-09-17 05:10:00,53.2,48.2,26.77,SE,135,0.0,0.0,83,0.00,,,0.00,WUHU216HW,2013-09-17 09:10:00,
2013-09-17 05:15:00,53.2,48.2,26.77,SE,135,0.0,0.0,83,0.00,,,0.00,WUHU216HW,2013-09-17 09:15:00,
2013-09-17 05:20:00,53.2,48.2,26.77,SE,135,0.0,0.0,83,0.00,,,0.00,WUHU216HW,2013-09-17 09:20:00,
2013-09-17 05:25:00,53.0,48.0,26.77,SE,135,0.0,0.0,83,0.00,,,0.00,WUHU216HW,2013-09-17 09:25:00,
2013-09-17 05:30:00,53.0,48.0,26.77,SE,135,0.0,0.0,83,0.00,,,0.00,WUHU216HW,2013-09-17 09:30:00,
2013-09-17 05:35:00,52.8,47.8,26.77,SE,135,0.0,0.0,83,0.00,,,0.00,WUHU216HW,2013-09-17 09:35:00,
2013-09-17 05:40:00,52.8,47.8,26.77,SE,135,0.0,0.0,83,0.00,,,0.00,WUHU216HW,2013-09-17 09:40:00,
2013-09-17 05:45:00,52.8,47.8,26.77,SE,135,0.0,0.0,83,0.00,,,0.00,WUHU216HW,2013-09-17 09:45:00,
2013-09-17 05:51:00,52.7,47.6,26.77,SE,135,0.0,0.0,83,0.00,,,0.00,WUHU216HW,2013-09-17 09:51:00,
2013-09-17 05:56:00,52.7,47.7,26.77,SE,135,0.0,0.0,83,0.00,,,0.00,WUHU216HW,2013-09-17 09:56:00,
2013-09-17 06:01:00,52.5,47.4,26.77,SE,135,0.0,0.0,83,0.00,,,0.00,WUHU216HW,2013-09-17 10:01:00,
2013-09-17 06:06:00,52.5,47.4,26.77,SE,135,0.0,0.0,83,0.00,,,0.00,WUHU216HW,2013-09-17 10:06:00,
2013-09-17 06:11:00,52.5,47.4,26.78,SE,135,0.0,0.0,83,0.00,,,0.00,WUHU216HW,2013-09-17 10:11:00,
2013-09-17 06:16:00,52.5,47.4,26.78,SE,135,0.0,0.0,83,0.00,,,0.00,WUHU216HW,2013-09-17 10:16:00,
2013-09-17 06:21:00,52.5,47.4,26.79,SE,135,0.0,0.0,83,0.00,,,0.00,WUHU216HW,2013-09-17 10:21:00,
2013-09-17 06:26:00,52.3,47.3,26.79,SE,135,0.0,0.0,83,0.00,,,0.00,WUHU216HW,2013-09-17 10:26:00,
2013-09-17 06:31:00,52.3,47.3,26.78,SE,135,0.0,0.0,83,0.00,,,0.00,WUHU216HW,2013-09-17 10:31:00,
2013-09-17 06:36:00,52.3,47.3,26.78,SE,135,0.0,0.0,83,0.00,,,0.00,WUHU216HW,2013-09-17 10:36:00,
2013-09-17 06:41:00,52.3,47.3,26.79,SE,135,0.0,0.0,83,0.00,,,0.00,WUHU216HW,2013-09-17 10:41:00,
2013-09-17 06:46:00,52.3,47.3,26.79,SE,135,0.0,0.0,83,0.00,,,0.00,WUHU216HW,2013-09-17 10:46:00,
2013-09-17 06:51:00,52.3,47.3,26.79,SE,135,0.0,0.0,83,0.00,,,0.00,WUHU216HW,2013-09-17 10:51:00,
2013-09-17 06:56:00,52.3,47.3,26.79,SE,135,0.0,0.0,83,0.00,,,0.00,WUHU216HW,2013-09-17 10:56:00,
2013-09-17 07:13:00,51.8,47.0,26.79,SE,135,0.0,0.0,84,0.00,,,0.00,WUHU216HW,2013-09-17 11:13:00,
2013-09-17 07:18:00,51.6,46.9,26.79,SE,135,0.0,0.0,84,0.00,,,0.00,WUHU216HW,2013-09-17 11:18:00,
2013-09-17 07:24:00,51.6,46.9,26.80,SE,135,0.0,0.0,84,0.00,,,0.00,WUHU216HW,2013-09-17 11:24:00,
2013-09-17 07:29:00,51.4,46.7,26.80,SE,135,0.0,0.0,84,0.00,,,0.00,WUHU216HW,2013-09-17 11:29:00,
2013-09-17 07:34:00,51.0,46.6,26.80,SE,135,0.0,0.0,85,0.00,,,0.00,WUHU216HW,2013-09-17 11:34:00,
2013-09-17 07:39:00,51.0,46.6,26.80,SE,135,0.0,0.0,85,0.00,,,0.00,WUHU216HW,2013-09-17 11:39:00,
2013-09-17 07:44:00,51.0,46.6,26.81,SE,135,0.0,0.0,85,0.00,,,0.00,WUHU216HW,2013-09-17 11:44:00,
2013-09-17 07:49:00,51.0,46.6,26.80,SE,135,0.0,0.0,85,0.00,,,0.00,WUHU216HW,2013-09-17 11:49:00,
2013-09-17 07:54:00,50.9,46.4,26.80,SE,135,0.0,0.0,85,0.00,,,0.00,WUHU216HW,2013-09-17 11:54:00,
2013-09-17 07:59:00,50.9,46.4,26.80,SE,135,0.0,0.0,85,0.00,,,0.00,WUHU216HW,2013-09-17 11:59:00,
2013-09-17 08:04:00,50.9,46.4,26.80,SE,135,0.0,0.0,85,0.00,,,0.00,WUHU216HW,2013-09-17 12:04:00,
2013-09-17 08:09:00,50.7,46.3,26.80,SE,135,0.0,0.0,85,0.00,,,0.00,WUHU216HW,2013-09-17 12:09:00,
2013-09-17 08:14:00,50.7,46.3,26.80,SE,135,0.0,0.0,85,0.00,,,0.00,WUHU216HW,2013-09-17 12:14:00,
2013-09-17 08:19:00,50.7,46.6,26.81,SE,135,0.0,0.0,86,0.00,,,0.00,WUHU216HW,2013-09-17 12:19:00,
2013-09-17 08:24:00,50.7,46.6,26.81,SE,135,0.0,0.0,86,0.00,,,0.00,WUHU216HW,2013-09-17 12:24:00,
2013-09-17 08:29:00,50.7,46.6,26.81,SE,135,0.0,0.0,86,0.00,,,0.00,WUHU216HW,2013-09-17 12:29:00,
2013-09-17 08:34:00,50.9,46.7,26.81,SE,135,0.0,0.0,86,0.00,,,0.00,WUHU216HW,2013-09-17 12:34:00,
2013-09-17 08:39:00,51.0,46.9,26.82,SE,135,0.0,0.0,86,0.00,,,0.00,WUHU216HW,2013-09-17 12:39:00,
2013-09-17 08:44:00,51.0,47.2,26.82,SE,135,0.0,0.0,87,0.00,,,0.00,WUHU216HW,2013-09-17 12:44:00,
2013-09-17 08:49:00,51.4,47.6,26.82,SE,135,0.0,0.0,87,0.00,,,0.00,WUHU216HW,2013-09-17 12:49:00,
2013-09-17 08:54:00,51.6,47.8,26.82,SE,135,0.0,0.0,87,0.00,,,0.00,WUHU216HW,2013-09-17 12:54:00,
2013-09-17 08:59:00,51.6,47.8,26.81,SE,135,0.0,0.0,87,0.00,,,0.00,WUHU216HW,2013-09-17 12:59:00,
2013-09-17 09:04:00,51.8,48.0,26.81,SE,135,0.0,0.0,87,0.00,,,0.00,WUHU216HW,2013-09-17 13:04:00,
2013-09-17 09:09:00,51.9,48.1,26.81,SE,135,0.0,0.0,87,0.00,,,0.00,WUHU216HW,2013-09-17 13:09:00,
2013-09-17 09:14:00,52.3,48.5,26.82,SE,135,0.0,0.0,87,0.00,,,0.00,WUHU216HW,2013-09-17 13:14:00,
2013-09-17 09:19:00,52.7,48.5,26.82,SSE,158,0.0,0.0,86,0.00,,,0.00,WUHU216HW,2013-09-17 13:19:00,
2013-09-17 09:24:00,53.2,49.1,26.82,SSE,158,2.9,2.9,86,0.00,,,0.00,WUHU216HW,2013-09-17 13:24:00,
2013-09-17 09:29:00,53.4,49.3,26.82,SE,135,0.0,2.9,86,0.00,,,0.00,WUHU216HW,2013-09-17 13:29:00,
2013-09-17 09:34:00,53.9,49.8,26.82,SSE,158,0.0,2.9,85,0.00,,,0.00,WUHU216HW,2013-09-17 13:34:00,
2013-09-17 09:39:00,54.5,49.7,26.82,SSE,158,0.0,3.5,84,0.00,,,0.00,WUHU216HW,2013-09-17 13:39:00,
2013-09-17 09:44:00,54.8,49.7,26.82,SE,135,0.0,3.5,83,0.00,,,0.00,WUHU216HW,2013-09-17 13:44:00,
2013-09-17 09:49:00,55.2,50.0,26.82,SE,135,5.8,5.8,83,0.00,,,0.00,WUHU216HW,2013-09-17 13:49:00,
2013-09-17 09:54:00,55.9,50.4,26.82,SSE,158,0.0,5.8,82,0.00,,,0.00,WUHU216HW,2013-09-17 13:54:00,
2013-09-17 09:59:00,56.3,50.8,26.82,SSE,158,0.0,5.8,82,0.00,,,0.00,WUHU216HW,2013-09-17 13:59:00,
2013-09-17 10:04:00,56.8,51.3,26.82,SSE,158,0.0,5.8,82,0.00,,,0.00,WUHU216HW,2013-09-17 14:04:00,
2013-09-17 10:09:00,56.8,50.7,26.82,SSE,158,3.8,4.6,80,0.00,,,0.00,WUHU216HW,2013-09-17 14:09:00,
2013-09-17 10:14:00,56.8,50.7,26.82,SE,135,4.0,4.6,80,0.00,,,0.00,WUHU216HW,2013-09-17 14:14:00,
2013-09-17 10:19:00,56.8,50.3,26.82,SSE,158,0.0,4.0,79,0.00,,,0.00,WUHU216HW,2013-09-17 14:19:00,
2013-09-17 10:24:00,56.8,50.3,26.82,SE,135,0.0,0.0,79,0.00,,,0.00,WUHU216HW,2013-09-17 14:24:00,
2013-09-17 10:29:00,57.0,50.5,26.82,SSE,158,5.1,5.1,79,0.00,,,0.00,WUHU216HW,2013-09-17 14:29:00,
2013-09-17 10:34:00,56.8,50.0,26.83,SSE,158,0.0,6.4,78,0.00,,,0.00,WUHU216HW,2013-09-17 14:34:00,
2013-09-17 10:39:00,56.8,50.0,26.83,SSE,158,4.0,6.4,78,0.00,,,0.00,WUHU216HW,2013-09-17 14:39:00,
2013-09-17 10:44:00,57.0,50.1,26.83,SE,135,0.0,4.0,78,0.00,,,0.00,WUHU216HW,2013-09-17 14:44:00,
2013-09-17 10:49:00,57.0,50.1,26.83,SSE,158,0.0,4.0,78,0.00,,,0.00,WUHU216HW,2013-09-17 14:49:00,
2013-09-17 10:54:00,57.0,50.1,26.83,SSE,158,0.0,0.0,78,0.00,,,0.00,WUHU216HW,2013-09-17 14:54:00,
2013-09-17 10:59:00,57.5,50.7,26.83,SSE,158,0.0,4.4,78,0.00,,,0.00,WUHU216HW,2013-09-17 14:59:00,
2013-09-17 11:04:00,58.1,51.2,26.83,SSE,158,3.8,4.4,78,0.00,,,0.00,WUHU216HW,2013-09-17 15:04:00,
2013-09-17 11:09:00,58.6,51.8,26.83,SSE,158,0.0,4.9,78,0.00,,,0.00,WUHU216HW,2013-09-17 15:09:00,
2013-09-17 11:14:00,58.8,51.6,26.83,SSE,158,0.0,4.9,77,0.00,,,0.00,WUHU216HW,2013-09-17 15:14:00,
2013-09-17 11:19:00,58.8,51.2,26.83,SSE,158,0.0,4.4,76,0.00,,,0.00,WUHU216HW,2013-09-17 15:19:00,
2013-09-17 11:24:00,58.8,50.9,26.83,SSE,158,2.6,6.0,75,0.00,,,0.00,WUHU216HW,2013-09-17 15:24:00,
2013-09-17 11:30:00,58.8,50.9,26.83,SSE,158,0.0,6.0,75,0.00,,,0.00,WUHU216HW,2013-09-17 15:30:00,
2013-09-17 11:35:00,58.8,50.9,26.83,SSE,158,0.0,0.0,75,0.00,,,0.00,WUHU216HW,2013-09-17 15:35:00,
2013-09-17 11:40:00,58.8,51.2,26.83,SSE,158,0.0,0.0,76,0.00,,,0.00,WUHU216HW,2013-09-17 15:40:00,
2013-09-17 11:45:00,58.8,51.2,26.83,SSE,158,0.0,0.8,76,0.00,,,0.00,WUHU216HW,2013-09-17 15:45:00,
2013-09-17 11:50:00,58.8,51.2,26.83,SSE,158,0.0,0.8,76,0.00,,,0.00,WUHU216HW,2013-09-17 15:50:00,
2013-09-17 11:55:00,58.8,51.2,26.83,SSE,158,3.1,3.3,76,0.00,,,0.00,WUHU216HW,2013-09-17 15:55:00,
2013-09-17 12:00:00,58.8,51.2,26.83,SSE,158,0.8,3.3,76,0.00,,,0.00,WUHU216HW,2013-09-17 16:00:00,
2013-09-17 12:05:00,58.8,50.9,26.83,SSE,158,0.0,0.8,75,0.00,,,0.00,WUHU216HW,2013-09-17 16:05:00,
2013-09-17 12:10:00,58.8,50.9,26.83,SSE,158,0.0,0.8,75,0.00,,,0.00,WUHU216HW,2013-09-17 16:10:00,
2013-09-17 12:15:00,58.8,50.9,26.83,SSE,158,5.3,5.3,75,0.00,,,0.00,WUHU216HW,2013-09-17 16:15:00,
2013-09-17 12:20:00,58.8,50.9,26.83,SSE,158,0.0,5.3,75,0.00,,,0.00,WUHU216HW,2013-09-17 16:20:00,
2013-09-17 12:25:00,58.8,51.2,26.83,SSE,158,0.0,5.3,76,0.00,,,0.00,WUHU216HW,2013-09-17 16:25:00,
2013-09-17 12:30:00,59.0,51.4,26.83,SSE,158,0.0,0.0,76,0.00,,,0.00,WUHU216HW,2013-09-17 16:30:00,
2013-09-17 12:35:00,59.1,51.6,26.82,SSE,158,0.0,0.0,76,0.00,,,0.00,WUHU216HW,2013-09-17 16:35:00,
2013-09-17 12:40:00,59.5,51.6,26.83,SSE,158,0.0,0.0,75,0.00,,,0.00,WUHU216HW,2013-09-17 16:40:00,
2013-09-17 12:45:00,59.5,51.6,26.82,SE,135,1.5,1.5,75,0.00,,,0.00,WUHU216HW,2013-09-17 16:45:00,
2013-09-17 12:52:00,59.7,51.8,26.82,SSE,158,0.0,1.5,75,0.00,,,0.00,WUHU216HW,2013-09-17 16:52:00,
2013-09-17 12:57:00,59.7,51.8,26.82,SSE,158,0.0,0.0,75,0.00,,,0.00,WUHU216HW,2013-09-17 16:57:00,
2013-09-17 13:02:00,59.7,51.8,26.82,SSE,158,0.0,0.0,75,0.00,,,0.00,WUHU216HW,2013-09-17 17:02:00,
2013-09-17 13:07:00,59.7,51.8,26.82,SSE,158,0.0,0.0,75,0.00,,,0.00,WUHU216HW,2013-09-17 17:07:00,
2013-09-17 13:12:00,59.9,51.9,26.81,SSE,158,0.0,0.0,75,0.00,,,0.00,WUHU216HW,2013-09-17 17:12:00,
2013-09-17 13:17:00,59.9,51.9,26.82,SSE,158,0.0,0.0,75,0.00,,,0.00,WUHU216HW,2013-09-17 17:17:00,
2013-09-17 13:22:00,60.0,52.1,26.81,SSE,158,0.0,0.0,75,0.00,,,0.00,WUHU216HW,2013-09-17 17:22:00,
2013-09-17 13:27:00,60.0,52.1,26.81,SSE,158,0.0,0.0,75,0.00,,,0.00,WUHU216HW,2013-09-17 17:27:00,
2013-09-17 13:33:00,60.0,52.5,26.81,SSE,158,0.0,0.0,76,0.00,,,0.00,WUHU216HW,2013-09-17 17:33:00,
2013-09-17 13:38:00,60.4,52.5,26.81,SSE,158,0.0,0.0,75,0.00,,,0.00,WUHU216HW,2013-09-17 17:38:00,
2013-09-17 13:43:00,60.4,52.5,26.81,SSE,158,0.0,2.2,75,0.00,,,0.00,WUHU216HW,2013-09-17 17:43:00,
2013-09-17 13:48:00,60.4,52.1,26.81,SSE,158,0.0,2.2,74,0.00,,,0.00,WUHU216HW,2013-09-17 17:48:00,
2013-09-17 13:53:00,60.4,52.1,26.81,SSE,158,0.0,0.0,74,0.00,,,0.00,WUHU216HW,2013-09-17 17:53:00,
2013-09-17 13:58:00,60.4,52.1,26.81,SE,135,0.0,0.0,74,0.00,,,0.00,WUHU216HW,2013-09-17 17:58:00,
2013-09-17 14:03:00,60.4,52.1,26.81,SSE,158,0.0,0.0,74,0.00,,,0.00,WUHU216HW,2013-09-17 18:03:00,
2013-09-17 14:07:00,60.4,52.5,26.81,SSE,158,0.0,0.0,75,0.00,,,0.00,WUHU216HW,2013-09-17 18:07:00,
2013-09-17 14:15:00,60.0,52.1,26.80,SSE,158,0.0,0.0,75,0.00,,,0.00,WUHU216HW,2013-09-17 18:15:00,
2013-09-17 14:26:00,60.0,51.8,26.80,SSE,158,0.0,3.3,74,0.00,,,0.00,WUHU216HW,2013-09-17 18:26:00,
2013-09-17 14:31:00,60.0,51.8,26.80,SSE,158,2.2,2.2,74,0.00,,,0.00,WUHU216HW,2013-09-17 18:31:00,
2013-09-17 14:36:00,60.0,51.4,26.80,SSE,158,0.0,4.0,73,0.00,,,0.00,WUHU216HW,2013-09-17 18:36:00,
2013-09-17 14:41:00,60.0,51.4,26.80,SSE,158,0.0,4.0,73,0.00,,,0.00,WUHU216HW,2013-09-17 18:41:00,
2013-09-17 14:46:00,60.0,51.8,26.80,SE,135,0.0,0.0,74,0.00,,,0.00,WUHU216HW,2013-09-17 18:46:00,
2013-09-17 14:51:00,60.0,51.8,26.80,SSE,158,0.0,0.0,74,0.00,,,0.00,WUHU216HW,2013-09-17 18:51:00,
2013-09-17 14:56:00,60.0,51.8,26.80,SSE,158,0.0,0.0,74,0.00,,,0.00,WUHU216HW,2013-09-17 18:56:00,
2013-09-17 15:01:00,60.0,51.8,26.79,SSE,158,0.0,0.0,74,0.00,,,0.00,WUHU216HW,2013-09-17 19:01:00,
2013-09-17 15:06:00,60.0,52.1,26.79,SSE,158,0.0,0.0,75,0.00,,,0.00,WUHU216HW,2013-09-17 19:06:00,
2013-09-17 15:11:00,60.0,52.1,26.79,SSE,158,0.0,0.0,75,0.00,,,0.00,WUHU216HW,2013-09-17 19:11:00,
2013-09-17 15:16:00,60.0,52.1,26.79,SSE,158,0.0,0.0,75,0.00,,,0.00,WUHU216HW,2013-09-17 19:16:00,
2013-09-17 15:21:00,59.9,51.9,26.79,SSE,158,1.5,1.5,75,0.00,,,0.00,WUHU216HW,2013-09-17 19:21:00,
2013-09-17 15:26:00,59.7,51.8,26.79,SSE,158,0.0,3.5,75,0.00,,,0.00,WUHU216HW,2013-09-17 19:26:00,
2013-09-17 15:31:00,59.5,51.6,26.78,SSE,158,0.0,3.5,75,0.00,,,0.00,WUHU216HW,2013-09-17 19:31:00,
2013-09-17 15:36:00,59.1,51.4,26.78,SSE,158,0.0,2.4,75,0.00,,,0.00,WUHU216HW,2013-09-17 19:36:00,
2013-09-17 15:41:00,58.8,50.9,26.78,SSE,158,0.0,2.4,75,0.00,,,0.00,WUHU216HW,2013-09-17 19:41:00,
2013-09-17 15:46:00,58.8,50.9,26.78,SSE,158,0.0,0.0,75,0.00,,,0.00,WUHU216HW,2013-09-17 19:46:00,
2013-09-17 15:51:00,58.8,51.2,26.78,SSE,158,0.0,0.0,76,0.00,,,0.00,WUHU216HW,2013-09-17 19:51:00,
2013-09-17 15:56:00,58.8,51.2,26.78,SSE,158,0.0,0.0,76,0.00,,,0.00,WUHU216HW,2013-09-17 19:56:00,
2013-09-17 16:01:00,58.8,51.2,26.78,SSE,158,0.0,0.0,76,0.00,,,0.00,WUHU216HW,2013-09-17 20:01:00,
2013-09-17 16:06:00,58.8,51.2,26.78,SSE,158,0.0,0.0,76,0.00,,,0.00,WUHU216HW,2013-09-17 20:06:00,
2013-09-17 16:11:00,58.8,51.2,26.78,SSE,158,0.0,0.0,76,0.00,,,0.00,WUHU216HW,2013-09-17 20:11:00,
2013-09-17 16:16:00,58.8,51.2,26.78,SSE,158,0.0,0.0,76,0.00,,,0.00,WUHU216HW,2013-09-17 20:16:00,
2013-09-17 16:21:00,58.8,51.2,26.78,SSE,158,0.0,0.0,76,0.00,,,0.00,WUHU216HW,2013-09-17 20:21:00,
2013-09-17 16:26:00,58.8,51.6,26.78,SSE,158,0.0,0.0,77,0.00,,,0.00,WUHU216HW,2013-09-17 20:26:00,
2013-09-17 16:31:00,58.4,51.2,26.78,SSE,158,0.0,0.0,77,0.00,,,0.00,WUHU216HW,2013-09-17 20:31:00,
2013-09-17 16:36:00,58.4,51.2,26.78,SSE,158,0.0,0.0,77,0.00,,,0.00,WUHU216HW,2013-09-17 20:36:00,
2013-09-17 16:41:00,58.1,50.9,26.78,SSE,158,0.0,0.0,77,0.00,,,0.00,WUHU216HW,2013-09-17 20:41:00,
2013-09-17 16:46:00,57.9,50.7,26.78,SSE,158,0.0,2.0,77,0.00,,,0.00,WUHU216HW,2013-09-17 20:46:00,
2013-09-17 16:51:00,57.9,50.7,26.78,SSE,158,0.0,2.0,77,0.00,,,0.00,WUHU216HW,2013-09-17 20:51:00,
2013-09-17 16:57:00,57.7,50.9,26.78,SSE,158,0.0,0.0,78,0.00,,,0.00,WUHU216HW,2013-09-17 20:57:00,
2013-09-17 17:02:00,57.7,50.9,26.77,SSE,158,0.0,0.0,78,0.00,,,0.00,WUHU216HW,2013-09-17 21:02:00,
2013-09-17 17:07:00,57.5,50.7,26.77,SSE,158,0.0,0.0,78,0.00,,,0.00,WUHU216HW,2013-09-17 21:07:00,
2013-09-17 17:12:00,57.5,50.7,26.77,SSE,158,0.0,0.0,78,0.00,,,0.00,WUHU216HW,2013-09-17 21:12:00,
2013-09-17 17:17:00,57.3,50.9,26.77,SSE,158,0.0,0.0,79,0.00,,,0.00,WUHU216HW,2013-09-17 21:17:00,
2013-09-17 17:22:00,57.3,50.9,26.77,SSE,158,0.0,0.0,79,0.00,,,0.00,WUHU216HW,2013-09-17 21:22:00,
2013-09-17 17:27:00,57.3,50.5,26.78,SSE,158,0.0,0.0,78,0.00,,,0.00,WUHU216HW,2013-09-17 21:27:00,
2013-09-17 17:32:00,57.3,50.5,26.78,SE,135,0.0,0.0,78,0.00,,,0.00,WUHU216HW,2013-09-17 21:32:00,
2013-09-17 17:37:00,57.2,50.3,26.78,SE,135,0.0,0.0,78,0.00,,,0.00,WUHU216HW,2013-09-17 21:37:00,
2013-09-17 17:42:00,57.0,50.5,26.78,SSE,158,0.0,0.0,79,0.00,,,0.00,WUHU216HW,2013-09-17 21:42:00,
2013-09-17 17:47:00,57.0,50.5,26.78,SSE,158,0.0,0.0,79,0.00,,,0.00,WUHU216HW,2013-09-17 21:47:00,
2013-09-17 17:52:00,57.0,50.5,26.78,SSE,158,0.0,0.0,79,0.00,,,0.00,WUHU216HW,2013-09-17 21:52:00,
2013-09-17 17:57:00,57.0,50.5,26.78,SSE,158,0.0,0.0,79,0.00,,,0.00,WUHU216HW,2013-09-17 21:57:00,
2013-09-17 18:02:00,56.8,50.3,26.78,SSE,158,0.0,0.0,79,0.00,,,0.00,WUHU216HW,2013-09-17 22:02:00,
2013-09-17 18:07:00,56.8,50.7,26.78,SSE,158,0.0,0.0,80,0.00,,,0.00,WUHU216HW,2013-09-17 22:07:00,
2013-09-17 18:12:00,56.8,50.7,26.77,SSE,158,0.0,0.0,80,0.00,,,0.00,WUHU216HW,2013-09-17 22:12:00,
2013-09-17 18:17:00,56.8,50.7,26.78,SSE,158,0.0,0.0,80,0.00,,,0.00,WUHU216HW,2013-09-17 22:17:00,
2013-09-17 18:22:00,56.6,50.5,26.78,SSE,158,0.0,0.0,80,0.00,,,0.00,WUHU216HW,2013-09-17 22:22:00,
2013-09-17 18:27:00,56.4,50.3,26.77,SSE,158,0.0,0.0,80,0.00,,,0.00,WUHU216HW,2013-09-17 22:27:00,
2013-09-17 18:32:00,56.4,50.3,26.77,SSE,158,0.0,0.0,80,0.00,,,0.00,WUHU216HW,2013-09-17 22:32:00,
2013-09-17 18:37:00,56.4,50.3,26.77,SE,135,0.0,0.0,80,0.00,,,0.00,WUHU216HW,2013-09-17 22:37:00,
2013-09-17 18:42:00,56.4,50.3,26.77,SSE,158,0.0,0.0,80,0.00,,,0.00,WUHU216HW,2013-09-17 22:42:00,
2013-09-17 18:47:00,56.3,50.5,26.77,SSE,158,0.0,0.0,81,0.00,,,0.00,WUHU216HW,2013-09-17 22:47:00,
2013-09-17 18:52:00,56.3,50.5,26.77,SSE,158,0.0,0.0,81,0.00,,,0.00,WUHU216HW,2013-09-17 22:52:00,
2013-09-17 18:57:00,56.3,50.5,26.77,SSE,158,0.0,0.0,81,0.00,,,0.00,WUHU216HW,2013-09-17 22:57:00,
2013-09-17 19:02:00,56.1,50.3,26.77,SSE,158,0.0,0.0,81,0.00,,,0.00,WUHU216HW,2013-09-17 23:02:00,
2013-09-17 19:07:00,55.9,50.1,26.77,SSE,158,0.0,0.0,81,0.00,,,0.00,WUHU216HW,2013-09-17 23:07:00,
2013-09-17 19:12:00,55.9,50.1,26.77,SSE,158,0.0,0.0,81,0.00,,,0.00,WUHU216HW,2013-09-17 23:12:00,
2013-09-17 19:17:00,55.9,50.1,26.77,SSE,158,0.0,0.0,81,0.00,,,0.00,WUHU216HW,2013-09-17 23:17:00,
2013-09-17 19:22:00,55.9,50.4,26.77,SSE,158,0.0,0.0,81,0.00,,,0.00,WUHU216HW,2013-09-17 23:22:00,
2013-09-17 19:28:00,55.9,50.4,26.77,SSE,158,0.0,0.0,82,0.00,,,0.00,WUHU216HW,2013-09-17 23:28:00,
2013-09-17 19:33:00,55.7,49.9,26.77,SSE,158,0.0,0.0,81,0.00,,,0.00,WUHU216HW,2013-09-17 23:33:00,
2013-09-17 19:38:00,55.5,49.7,26.77,SSE,158,0.0,0.0,81,0.00,,,0.00,WUHU216HW,2013-09-17 23:38:00,
2013-09-17 19:43:00,55.5,50.1,26.77,SSE,158,0.0,0.0,82,0.00,,,0.00,WUHU216HW,2013-09-17 23:43:00,
2013-09-17 19:48:00,55.5,50.1,26.77,SSE,158,0.0,0.0,82,0.00,,,0.00,WUHU216HW,2013-09-17 23:48:00,
2013-09-17 19:53:00,55.5,50.1,26.77,SSE,158,0.0,0.0,82,0.00,,,0.00,WUHU216HW,2013-09-17 23:53:00,
2013-09-17 19:58:00,55.5,50.1,26.77,SSE,158,0.0,0.0,82,0.00,,,0.00,WUHU216HW,2013-09-17 23:58:00,
2013-09-17 20:03:00,55.5,50.1,26.77,SSE,158,0.0,0.0,82,0.00,,,0.00,WUHU216HW,2013-09-18 00:03:00,
2013-09-17 20:08:00,55.4,49.9,26.77,SSE,158,0.0,0.0,82,0.00,,,0.00,WUHU216HW,2013-09-18 00:08:00,
2013-09-17 20:13:00,55.2,49.7,26.77,SSE,158,0.0,0.0,82,0.00,,,0.00,WUHU216HW,2013-09-18 00:13:00,
2013-09-17 20:18:00,55.2,49.7,26.77,SSE,158,0.0,0.0,82,0.00,,,0.00,WUHU216HW,2013-09-18 00:18:00,
2013-09-17 20:23:00,55.2,49.7,26.77,SSE,158,0.0,0.0,82,0.00,,,0.00,WUHU216HW,2013-09-18 00:23:00,
2013-09-17 20:28:00,55.2,49.7,26.77,SSE,158,0.0,0.0,82,0.00,,,0.00,WUHU216HW,2013-09-18 00:28:00,
2013-09-17 20:33:00,55.2,50.0,26.77,SSE,158,0.0,0.0,83,0.00,,,0.00,WUHU216HW,2013-09-18 00:33:00,
2013-09-17 20:38:00,55.0,49.9,26.77,SSE,158,0.0,0.0,83,0.00,,,0.00,WUHU216HW,2013-09-18 00:38:00,
2013-09-17 20:43:00,55.0,49.9,26.77,SSE,158,0.0,0.0,83,0.00,,,0.00,WUHU216HW,2013-09-18 00:43:00,
2013-09-17 20:48:00,55.2,50.0,26.77,SSE,158,0.0,0.0,83,0.00,,,0.00,WUHU216HW,2013-09-18 00:48:00,
2013-09-17 20:53:00,55.0,50.0,26.77,SSE,158,0.0,0.0,83,0.00,,,0.00,WUHU216HW,2013-09-18 00:53:00,
2013-09-17 20:58:00,55.2,50.0,26.78,SSE,158,0.0,0.0,83,0.00,,,0.00,WUHU216HW,2013-09-18 00:58:00,
2013-09-17 21:03:00,55.0,49.9,26.78,SSE,158,0.0,0.0,83,0.00,,,0.00,WUHU216HW,2013-09-18 01:03:00,
2013-09-17 21:08:00,55.2,50.0,26.79,SSE,158,0.0,0.0,83,0.00,,,0.00,WUHU216HW,2013-09-18 01:08:00,
2013-09-17 21:13:00,55.2,50.0,26.78,SSE,158,0.0,0.0,83,0.00,,,0.00,WUHU216HW,2013-09-18 01:13:00,
2013-09-17 21:18:00,55.2,50.0,26.78,SSE,158,0.0,0.0,83,0.00,,,0.00,WUHU216HW,2013-09-18 01:18:00,
2013-09-17 21:23:00,55.2,50.0,26.78,SSE,158,0.0,0.0,83,0.00,,,0.00,WUHU216HW,2013-09-18 01:23:00,
2013-09-17 21:28:00,55.2,50.0,26.78,SSE,158,0.0,0.0,83,0.00,,,0.00,WUHU216HW,2013-09-18 01:28:00,
2013-09-17 21:53:00,55.0,50.2,26.78,SSE,158,0.0,0.0,84,0.00,,,0.00,WUHU216HW,2013-09-18 01:53:00,
2013-09-17 21:58:00,54.8,50.0,26.79,SSE,158,0.0,0.0,84,0.00,,,0.00,WUHU216HW,2013-09-18 01:58:00,
2013-09-17 22:03:00,54.6,49.8,26.79,SSE,158,0.0,0.0,84,0.00,,,0.00,WUHU216HW,2013-09-18 02:03:00,
2013-09-17 22:08:00,54.6,49.8,26.79,SSE,158,0.0,0.0,84,0.00,,,0.00,WUHU216HW,2013-09-18 02:08:00,
2013-09-17 22:13:00,54.5,49.7,26.79,SSE,158,0.0,0.0,84,0.00,,,0.00,WUHU216HW,2013-09-18 02:13:00,
2013-09-17 22:18:00,54.6,49.8,26.79,SSE,158,0.0,0.0,84,0.00,,,0.00,WUHU216HW,2013-09-18 02:18:00,
2013-09-17 22:24:00,54.5,49.7,26.79,SSE,158,0.0,0.0,84,0.00,,,0.00,WUHU216HW,2013-09-18 02:24:00,
2013-09-17 22:29:00,54.5,49.7,26.79,SSE,158,0.0,0.0,84,0.00,,,0.00,WUHU216HW,2013-09-18 02:29:00,
2013-09-17 22:34:00,54.5,49.7,26.79,SSE,158,0.0,0.0,84,0.00,,,0.00,WUHU216HW,2013-09-18 02:34:00,
2013-09-17 22:39:00,54.5,49.7,26.79,SSE,158,0.0,0.0,84,0.00,,,0.00,WUHU216HW,2013-09-18 02:39:00,
2013-09-17 22:44:00,54.5,49.7,26.79,SSE,158,0.0,0.0,84,0.00,,,0.00,WUHU216HW,2013-09-18 02:44:00,
2013-09-17 22:49:00,54.5,49.7,26.79,SSE,158,0.0,0.0,84,0.00,,,0.00,WUHU216HW,2013-09-18 02:49:00,
2013-09-17 22:54:00,54.5,49.7,26.79,SSE,158,0.0,0.0,84,0.00,,,0.00,WUHU216HW,2013-09-18 02:54:00,
2013-09-17 22:59:00,54.5,49.7,26.79,SSE,158,0.0,0.0,84,0.00,,,0.00,WUHU216HW,2013-09-18 02:59:00,
2013-09-17 23:04:00,54.3,49.5,26.79,SSE,158,0.0,0.0,84,0.00,,,0.00,WUHU216HW,2013-09-18 03:04:00,
2013-09-17 23:09:00,54.3,49.5,26.79,SSE,158,0.0,0.0,84,0.00,,,0.00,WUHU216HW,2013-09-18 03:09:00,
2013-09-17 23:14:00,54.3,49.5,26.79,SSE,158,0.0,0.0,84,0.00,,,0.00,WUHU216HW,2013-09-18 03:14:00,
2013-09-17 23:19:00,54.3,49.8,26.79,SSE,158,0.0,0.0,85,0.00,,,0.00,WUHU216HW,2013-09-18 03:19:00,
2013-09-17 23:24:00,54.3,49.8,26.79,SSE,158,0.0,0.0,85,0.00,,,0.00,WUHU216HW,2013-09-18 03:24:00,
2013-09-17 23:29:00,54.3,49.8,26.79,SSE,158,0.0,0.0,85,0.00,,,0.00,WUHU216HW,2013-09-18 03:29:00,
2013-09-17 23:34:00,54.1,49.6,26.79,SSE,158,0.0,7.3,85,0.00,,,0.00,WUHU216HW,2013-09-18 03:34:00,
2013-09-17 23:39:00,54.1,49.6,26.79,SSE,158,0.0,7.3,85,0.00,,,0.00,WUHU216HW,2013-09-18 03:39:00,
2013-09-17 23:44:00,54.1,49.6,26.79,SSE,158,0.0,0.0,85,0.00,,,0.00,WUHU216HW,2013-09-18 03:44:00,
2013-09-17 23:49:00,54.1,49.6,26.79,SSE,158,0.0,0.0,85,0.00,,,0.00,WUHU216HW,2013-09-18 03:49:00,
2013-09-17 23:54:00,54.1,49.3,26.79,SSE,158,0.0,1.1,84,0.00,,,0.00,WUHU216HW,2013-09-18 03:54:00,
2013-09-17 23:59:00,54.1,49.3,26.79,SSE,158,0.0,1.1,84,0.00,,,0.00,WUHU216HW,2013-09-18 03:59:00,